QPF
0.04 0.04 0.05 0.03 0.02 0.02 0.01 0.00 0.00 0.00 0.01 0.01 0.01 0.00 0.00 0.00 0.00 0.00 0.00 0.01 0.01 0.01 0.01 0.00 0.01 0.01 0.01 0.02 0.02 0.02 0.02 0.02 0.02 0.03 0.04 0.04 0.04 0.04 0.05 0.05 0.05 0.03 0.05
0.01 0.04 0.05 0.02 0.02 0.02 0.01 0.00 0.00 0.00 0.00 0.00 0.01 0.01 0.01 0.00 0.00 0.00 0.00 0.01 0.01 0.01 0.01 0.01 0.01 0.01 0.01 0.01 0.01 0.01 0.01 0.01 0.02 0.02 0.03 0.03 0.03 0.04 0.04 0.04 0.05 0.04 0.06
0.02 0.05 0.05 0.03 0.02 0.02 0.01 0.00 0.00 0.00 0.00 0.00 0.00 0.01 0.01 0.01 0.01 0.01 0.01 0.01 0.01 0.01 0.01 0.01 0.01 0.01 0.01 0.01 0.01 0.01 0.01 0.01 0.01 0.02 0.02 0.01 0.01 0.03 0.03 0.04 0.05 0.06 0.06
0.03 0.08 0.06 0.03 0.03 0.01 0.01 0.01 0.01 0.01 0.01 0.00 0.00 0.00 0.00 0.01 0.01 0.01 0.01 0.01 0.01 0.01 0.01 0.02 0.01 0.01 0.01 0.01 0.01 0.01 0.02 0.01 0.01 0.01 0.01 0.00 0.01 0.02 0.05 0.05 0.06 0.05 0.05
0.07 0.15 0.07 0.03 0.03 0.02 0.02 0.01 0.01 0.01 0.01 0.01 0.01 0.00 0.00 0.01 0.01 0.01 0.01 0.01 0.01 0.01 0.01 0.01 0.01 0.01 0.01 0.01 0.02 0.02 0.02 0.02 0.02 0.02 0.01 0.01 0.01 0.02 0.04 0.05 0.06 0.06 0.06
0.07 0.12 0.08 0.03 0.02 0.02 0.03 0.02 0.02 0.01 0.01 0.01 0.02 0.01 0.01 0.01 0.01 0.01 0.01 0.01 0.01 0.01 0.02 0.02 0.02 0.02 0.02 0.02 0.01 0.01 0.01 0.01 0.02 0.02 0.02 0.02 0.02 0.02 0.05 0.06 0.07 0.08 0.07
0.04 0.07 0.07 0.05 0.02 0.02 0.02 0.02 0.01 0.01 0.01 0.01 0.01 0.02 0.02 0.01 0.02 0.02 0.01 0.01 0.01 0.01 0.02 0.03 0.03 0.03 0.02 0.02 0.02 0.02 0.02 0.01 0.01 0.00 0.01 0.01 0.01 0.01 0.03 0.05 0.06 0.07 0.07
0.03 0.05 0.06 0.05 0.04 0.02 0.01 0.01 0.01 0.01 0.01 0.01 0.01 0.02 0.02 0.03 0.03 0.03 0.02 0.02 0.03 0.03 0.03 0.02 0.03 0.03 0.03 0.03 0.04 0.03 0.03 0.02 0.01 0.00 0.00 0.01 0.01 0.02 0.03 0.05 0.06 0.08 0.09
0.02 0.04 0.05 0.05 0.05 0.04 0.02 0.02 0.02 0.01 0.01 0.02 0.02 0.02 0.02 0.03 0.04 0.04 0.05 0.06 0.05 0.04 0.03 0.02 0.03 0.03 0.03 0.03 0.03 0.03 0.03 0.03 0.02 0.01 0.00 0.00 0.01 0.02 0.03 0.05 0.07 0.08 0.08
0.04 0.05 0.03 0.04 0.04 0.03 0.02 0.02 0.02 0.02 0.02 0.04 0.04 0.04 0.04 0.04 0.04 0.04 0.04 0.05 0.06 0.05 0.05 0.05 0.04 0.04 0.03 0.02 0.02 0.03 0.03 0.04 0.02 0.02 0.01 0.01 0.01 0.03 0.03 0.04 0.05 0.06 0.06
0.04 0.03 0.02 0.03 0.03 0.03 0.03 0.03 0.03 0.03 0.04 0.04 0.04 0.04 0.04 0.03 0.04 0.04 0.04 0.05 0.06 0.08 0.09 0.08 0.07 0.06 0.05 0.03 0.03 0.04 0.04 0.04 0.04 0.03 0.02 0.02 0.02 0.04 0.04 0.04 0.04 0.04 0.05
0.03 0.03 0.03 0.03 0.05 0.07 0.06 0.04 0.04 0.04 0.04 0.05 0.05 0.05 0.04 0.03 0.02 0.02 0.03 0.07 0.08 0.09 0.10 0.09 0.09 0.08 0.07 0.05 0.05 0.05 0.04 0.03 0.04 0.04 0.03 0.03 0.03 0.04 0.06 0.05 0.04 0.04 0.07
0.04 0.04 0.05 0.07 0.10 0.10 0.07 0.05 0.04 0.04 0.05 0.05 0.05 0.05 0.03 0.02 0.02 0.02 0.02 0.03 0.06 0.08 0.07 0.07 0.08 0.08 0.06 0.06 0.05 0.05 0.04 0.02 0.02 0.01 0.02 0.03 0.05 0.05 0.07 0.06 0.04 0.04 0.06
0.04 0.04 0.06 0.08 0.14 0.20 0.15 0.10 0.06 0.05 0.06 0.05 0.04 0.05 0.05 0.04 0.03 0.02 0.02 0.02 0.04 0.05 0.05 0.05 0.06 0.06 0.07 0.05 0.04 0.04 0.04 0.04 0.03 0.02 0.01 0.03 0.05 0.06 0.08 0.08 0.05 0.05 0.06
0.04 0.04 0.04 0.07 0.11 0.17 0.17 0.10 0.05 0.04 0.05 0.05 0.06 0.06 0.05 0.05 0.03 0.02 0.02 0.03 0.03 0.04 0.04 0.04 0.04 0.04 0.05 0.06 0.06 0.04 0.03 0.03 0.03 0.03 0.02 0.03 0.05 0.06 0.07 0.10 0.10 0.09 0.09
0.04 0.05 0.05 0.04 0.05 0.09 0.11 0.09 0.05 0.03 0.03 0.04 0.04 0.04 0.03 0.03 0.03 0.03 0.04 0.04 0.04 0.04 0.05 0.06 0.05 0.05 0.03 0.04 0.05 0.05 0.05 0.04 0.03 0.02 0.01 0.01 0.03 0.05 0.07 0.09 0.12 0.13 0.12
0.05 0.06 0.07 0.07 0.05 0.06 0.08 0.07 0.05 0.04 0.04 0.03 0.04 0.04 0.03 0.03 0.03 0.04 0.05 0.06 0.06 0.06 0.06 0.05 0.04 0.04 0.03 0.02 0.02 0.03 0.04 0.04 0.03 0.02 0.02 0.03 0.03 0.04 0.06 0.09 0.13 0.14 0.15
0.08 0.09 0.08 0.07 0.07 0.06 0.05 0.04 0.04 0.05 0.05 0.05 0.06 0.05 0.03 0.02 0.02 0.02 0.03 0.03 0.04 0.06 0.07 0.07 0.06 0.04 0.03 0.02 0.02 0.02 0.01 0.01 0.02 0.02 0.03 0.03 0.03 0.03 0.04 0.07 0.11 0.15 0.17
0.09 0.09 0.08 0.06 0.07 0.07 0.06 0.05 0.06 0.06 0.06 0.06 0.06 0.05 0.03 0.02 0.02 0.02 0.02 0.02 0.03 0.04 0.06 0.06 0.05 0.04 0.03 0.02 0.01 0.02 0.02 0.01 0.01 0.02 0.03 0.03 0.03 0.03 0.03 0.04 0.08 0.14 0.17
0.06 0.06 0.06 0.06 0.05 0.06 0.06 0.04 0.06 0.07 0.05 0.05 0.05 0.04 0.04 0.04 0.02 0.02 0.03 0.03 0.03 0.04 0.05 0.06 0.06 0.05 0.03 0.03 0.02 0.02 0.02 0.01 0.01 0.01 0.02 0.02 0.03 0.04 0.05 0.05 0.05 0.07 0.11
0.04 0.04 0.05 0.05 0.06 0.05 0.05 0.04 0.05 0.07 0.05 0.04 0.04 0.05 0.04 0.05 0.04 0.03 0.03 0.03 0.04 0.03 0.04 0.04 0.04 0.04 0.04 0.04 0.04 0.03 0.02 0.02 0.01 0.02 0.02 0.02 0.03 0.04 0.05 0.05 0.05 0.05 0.05
0.04 0.03 0.03 0.04 0.05 0.05 0.05 0.05 0.05 0.06 0.05 0.04 0.05 0.06 0.05 0.04 0.04 0.04 0.04 0.04 0.04 0.04 0.04 0.03 0.04 0.04 0.04 0.04 0.03 0.03 0.02 0.02 0.01 0.01 0.01 0.01 0.01 0.02 0.02 0.03 0.03 0.03 0.04
0.05 0.05 0.05 0.06 0.05 0.04 0.04 0.05 0.05 0.04 0.03 0.04 0.05 0.04 0.03 0.02 0.02 0.05 0.07 0.06 0.05 0.05 0.05 0.04 0.04 0.04 0.04 0.03 0.02 0.03 0.03 0.02 0.01 0.01 0.00 0.01 0.01 0.01 0.01 0.02 0.02 0.02 0.02
0.05 0.05 0.05 0.05 0.05 0.05 0.06 0.06 0.04 0.03 0.02 0.03 0.03 0.03 0.02 0.02 0.03 0.04 0.05 0.06 0.06 0.06 0.06 0.06 0.06 0.05 0.05 0.05 0.04 0.03 0.03 0.03 0.02 0.01 0.01 0.01 0.01 0.01 0.01 0.02 0.03 0.03 0.02
0.05 0.05 0.05 0.04 0.04 0.04 0.05 0.06 0.03 0.02 0.02 0.02 0.02 0.04 0.02 0.02 0.03 0.03 0.05 0.07 0.06 0.05 0.05 0.05 0.05 0.04 0.04 0.05 0.06 0.06 0.05 0.04 0.03 0.02 0.01 0.01 0.01 0.02 0.01 0.01 0.01 0.02 0.03
0.04 0.05 0.05 0.04 0.04 0.04 0.04 0.04 0.03 0.03 0.02 0.02 0.03 0.05 0.04 0.03 0.04 0.05 0.05 0.04 0.05 0.06 0.06 0.05 0.04 0.06 0.08 0.07 0.07 0.08 0.07 0.05 0.03 0.03 0.02 0.01 0.01 0.02 0.02 0.01 0.01 0.01 0.03
MSLP
1008.34 1008.14 1008.12 1008.27 1008.52 1008.80 1009.04 1009.21 1009.29 1009.32 1009.35 1009.47 1009.70 1010.07 1010.57 1011.14 1011.71 1012.25 1012.69 1013.02 1013.28 1013.48 1013.66 1013.86 1014.08 1014.32 1014.56 1014.78 1014.96 1015.11 1015.23 1015.33 1015.44 1015.56 1015.70 1015.85 1015.98 1016.07 1016.13 1016.15 1016.14 1016.13 1016.13
1008.26 1008.13 1008.16 1008.34 1008.61 1008.91 1009.17 1009.36 1009.48 1009.54 1009.62 1009.77 1010.03 1010.41 1010.89 1011.44 1011.98 1012.48 1012.90 1013.22 1013.46 1013.67 1013.86 1014.06 1014.27 1014.49 1014.69 1014.86 1014.99 1015.09 1015.17 1015.25 1015.36 1015.50 1015.66 1015.83 1015.97 1016.06 1016.10 1016.08 1016.03 1015.97 1015.94
1008.12 1008.04 1008.12 1008.34 1008.65 1009.00 1009.31 1009.57 1009.75 1009.88 1010.01 1010.19 1010.46 1010.83 1011.27 1011.75 1012.23 1012.66 1013.02 1013.30 1013.53 1013.73 1013.93 1014.14 1014.35 1014.55 1014.73 1014.86 1014.94 1014.99 1015.04 1015.11 1015.21 1015.36 1015.54 1015.72 1015.85 1015.93 1015.93 1015.87 1015.78 1015.69 1015.64
1007.97 1007.93 1008.05 1008.31 1008.68 1009.09 1009.48 1009.81 1010.07 1010.27 1010.45 1010.66 1010.93 1011.26 1011.64 1012.04 1012.43 1012.77 1013.06 1013.29 1013.49 1013.69 1013.90 1014.12 1014.34 1014.54 1014.70 1014.80 1014.85 1014.88 1014.90 1014.95 1015.05 1015.20 1015.37 1015.54 1015.67 1015.72 1015.69 1015.59 1015.45 1015.33 1015.27
1007.86 1007.85 1008.00 1008.32 1008.75 1009.22 1009.68 1010.08 1010.40 1010.66 1010.88 1011.10 1011.35 1011.64 1011.95 1012.27 1012.56 1012.82 1013.03 1013.22 1013.39 1013.58 1013.80 1014.04 1014.28 1014.49 1014.65 1014.74 1014.78 1014.78 1014.79 1014.82 1014.91 1015.05 1015.21 1015.36 1015.46 1015.48 1015.42 1015.28 1015.12 1014.97 1014.90
1007.83 1007.84 1008.02 1008.38 1008.85 1009.37 1009.87 1010.31 1010.67 1010.95 1011.19 1011.41 1011.64 1011.90 1012.16 1012.41 1012.64 1012.82 1012.98 1013.12 1013.28 1013.47 1013.69 1013.95 1014.21 1014.44 1014.61 1014.71 1014.74 1014.74 1014.73 1014.76 1014.83 1014.94 1015.08 1015.20 1015.27 1015.25 1015.15 1014.99 1014.81 1014.66 1014.59
1007.89 1007.91 1008.12 1008.50 1008.98 1009.52 1010.02 1010.46 1010.82 1011.10 1011.33 1011.55 1011.77 1012.00 1012.24 1012.46 1012.65 1012.80 1012.93 1013.05 1013.19 1013.38 1013.61 1013.87 1014.15 1014.40 1014.58 1014.70 1014.74 1014.74 1014.73 1014.74 1014.79 1014.87 1014.98 1015.06 1015.09 1015.04 1014.92 1014.74 1014.55 1014.40 1014.34
1008.02 1008.06 1008.28 1008.66 1009.14 1009.64 1010.11 1010.51 1010.82 1011.07 1011.27 1011.48 1011.70 1011.95 1012.19 1012.42 1012.62 1012.78 1012.90 1013.01 1013.15 1013.32 1013.55 1013.82 1014.10 1014.36 1014.56 1014.68 1014.74 1014.75 1014.73 1014.73 1014.75 1014.80 1014.87 1014.91 1014.91 1014.83 1014.69 1014.50 1014.32 1014.19 1014.14
1008.20 1008.25 1008.48 1008.84 1009.28 1009.72 1010.12 1010.44 1010.68 1010.87 1011.05 1011.25 1011.49 1011.76 1012.05 1012.32 1012.56 1012.74 1012.88 1013.00 1013.13 1013.30 1013.52 1013.77 1014.04 1014.29 1014.50 1014.63 1014.69 1014.70 1014.68 1014.66 1014.66 1014.68 1014.70 1014.71 1014.67 1014.57 1014.43 1014.25 1014.08 1013.96 1013.93
1008.40 1008.46 1008.69 1009.02 1009.40 1009.77 1010.06 1010.29 1010.44 1010.57 1010.72 1010.92 1011.19 1011.51 1011.85 1012.19 1012.48 1012.71 1012.87 1013.00 1013.13 1013.28 1013.47 1013.70 1013.94 1014.18 1014.37 1014.50 1014.56 1014.56 1014.54 1014.50 1014.47 1014.45 1014.44 1014.41 1014.35 1014.24 1014.09 1013.93 1013.78 1013.69 1013.67
1008.60 1008.68 1008.90 1009.19 1009.51 1009.78 1009.98 1010.10 1010.18 1010.26 1010.38 1010.58 1010.88 1011.25 1011.65 1012.04 1012.39 1012.66 1012.85 1012.99 1013.11 1013.24 1013.39 1013.59 1013.80 1014.00 1014.17 1014.28 1014.33 1014.33 1014.29 1014.23 1014.17 1014.12 1014.08 1014.02 1013.94 1013.82 1013.68 1013.53 1013.41 1013.33 1013.33
1008.80 1008.89 1009.10 1009.35 1009.60 1009.79 1009.90 1009.95 1009.96 1010.00 1010.10 1010.32 1010.63 1011.04 1011.48 1011.91 1012.29 1012.59 1012.80 1012.94 1013.05 1013.16 1013.29 1013.44 1013.61 1013.78 1013.92 1014.01 1014.04 1014.02 1013.96 1013.88 1013.80 1013.72 1013.65 1013.57 1013.47 1013.35 1013.22 1013.08 1012.97 1012.91 1012.91
1009.02 1009.11 1009.29 1009.49 1009.68 1009.80 1009.85 1009.84 1009.82 1009.85 1009.95 1010.17 1010.50 1010.92 1011.37 1011.81 1012.19 1012.50 1012.71 1012.85 1012.95 1013.05 1013.15 1013.28 1013.42 1013.55 1013.66 1013.72 1013.72 1013.68 1013.60 1013.50 1013.40 1013.30 1013.20 1013.10 1012.99 1012.87 1012.74 1012.61 1012.51 1012.45 1012.45
1009.27 1009.33 1009.46 1009.61 1009.74 1009.81 1009.82 1009.80 1009.79 1009.82 1009.94 1010.16 1010.49 1010.89 1011.32 1011.73 1012.09 1012.37 1012.58 1012.72 1012.82 1012.92 1013.02 1013.14 1013.26 1013.36 1013.44 1013.47 1013.45 1013.38 1013.28 1013.16 1013.03 1012.91 1012.79 1012.68 1012.56 1012.43 1012.29 1012.16 1012.05 1011.99 1011.97
1009.56 1009.56 1009.62 1009.70 1009.77 1009.81 1009.82 1009.81 1009.83 1009.90 1010.04 1010.27 1010.58 1010.94 1011.31 1011.67 1011.97 1012.22 1012.41 1012.55 1012.67 1012.79 1012.91 1013.03 1013.15 1013.24 1013.29 1013.29 1013.24 1013.14 1013.02 1012.87 1012.73 1012.59 1012.45 1012.32 1012.19 1012.05 1011.90 1011.76 1011.64 1011.55 1011.50
1009.88 1009.79 1009.75 1009.75 1009.76 1009.78 1009.80 1009.84 1009.91 1010.04 1010.22 1010.45 1010.73 1011.03 1011.32 1011.60 1011.84 1012.04 1012.21 1012.36 1012.51 1012.66 1012.82 1012.96 1013.09 1013.18 1013.21 1013.19 1013.10 1012.97 1012.81 1012.64 1012.47 1012.31 1012.16 1012.01 1011.86 1011.71 1011.54 1011.38 1011.24 1011.12 1011.04
1010.21 1010.00 1009.85 1009.75 1009.70 1009.70 1009.75 1009.85 1010.00 1010.18 1010.41 1010.65 1010.89 1011.12 1011.33 1011.51 1011.68 1011.83 1011.99 1012.15 1012.34 1012.53 1012.73 1012.92 1013.06 1013.14 1013.16 1013.10 1012.98 1012.81 1012.62 1012.42 1012.22 1012.03 1011.86 1011.69 1011.51 1011.34 1011.15 1010.97 1010.80 1010.65 1010.53
1010.55 1010.21 1009.92 1009.72 1009.61 1009.60 1009.68 1009.84 1010.06 1010.31 1010.58 1010.82 1011.03 1011.19 1011.31 1011.41 1011.50 1011.61 1011.75 1011.93 1012.15 1012.39 1012.63 1012.84 1013.00 1013.07 1013.07 1012.97 1012.81 1012.60 1012.37 1012.13 1011.90 1011.67 1011.46 1011.26 1011.06 1010.85 1010.65 1010.44 1010.25 1010.08 1009.93
1010.89 1010.41 1010.00 1009.69 1009.52 1009.49 1009.60 1009.81 1010.10 1010.42 1010.72 1010.96 1011.13 1011.23 1011.27 1011.29 1011.31 1011.38 1011.50 1011.70 1011.94 1012.22 1012.48 1012.71 1012.86 1012.92 1012.88 1012.75 1012.54 1012.29 1012.01 1011.72 1011.45 1011.18 1010.92 1010.67 1010.43 1010.19 1009.95 1009.73 1009.53 1009.34 1009.18
1011.22 1010.63 1010.11 1009.72 1009.49 1009.44 1009.56 1009.82 1010.15 1010.51 1010.83 1011.07 1011.21 1011.25 1011.23 1011.17 1011.14 1011.17 1011.27 1011.46 1011.71 1011.99 1012.26 1012.48 1012.62 1012.64 1012.56 1012.39 1012.14 1011.84 1011.52 1011.19 1010.86 1010.53 1010.22 1009.91 1009.62 1009.33 1009.06 1008.82 1008.61 1008.42 1008.27
1011.55 1010.89 1010.30 1009.84 1009.56 1009.50 1009.62 1009.89 1010.26 1010.63 1010.96 1011.18 1011.28 1011.27 1011.19 1011.09 1011.01 1010.99 1011.07 1011.24 1011.47 1011.73 1011.98 1012.17 1012.26 1012.25 1012.13 1011.92 1011.63 1011.30 1010.94 1010.56 1010.17 1009.79 1009.41 1009.03 1008.67 1008.33 1008.02 1007.75 1007.53 1007.36 1007.22
1011.91 1011.22 1010.59 1010.09 1009.79 1009.70 1009.81 1010.08 1010.44 1010.80 1011.11 1011.30 1011.36 1011.31 1011.19 1011.04 1010.92 1010.87 1010.91 1011.04 1011.24 1011.45 1011.65 1011.79 1011.83 1011.78 1011.63 1011.39 1011.08 1010.73 1010.34 1009.92 1009.50 1009.05 1008.60 1008.14 1007.70 1007.29 1006.94 1006.64 1006.40 1006.23 1006.10
1012.30 1011.62 1010.98 1010.48 1010.16 1010.05 1010.14 1010.38 1010.70 1011.02 1011.29 1011.43 1011.46 1011.37 1011.21 1011.03 1010.88 1010.80 1010.80 1010.89 1011.03 1011.18 1011.31 1011.39 1011.39 1011.30 1011.12 1010.88 1010.57 1010.22 1009.83 1009.40 1008.94 1008.44 1007.92 1007.39 1006.87 1006.38 1005.96 1005.61 1005.35 1005.16 1005.04
1012.71 1012.06 1011.46 1010.97 1010.65 1010.52 1010.57 1010.75 1011.01 1011.27 1011.47 1011.57 1011.55 1011.43 1011.25 1011.06 1010.89 1010.78 1010.75 1010.79 1010.87 1010.95 1011.02 1011.04 1010.99 1010.88 1010.70 1010.47 1010.19 1009.87 1009.51 1009.09 1008.62 1008.09 1007.51 1006.91 1006.31 1005.74 1005.24 1004.82 1004.50 1004.28 1004.12
1013.11 1012.52 1011.97 1011.51 1011.19 1011.03 1011.03 1011.15 1011.32 1011.50 1011.62 1011.66 1011.61 1011.47 1011.29 1011.10 1010.93 1010.81 1010.76 1010.75 1010.77 1010.80 1010.80 1010.77 1010.70 1010.57 1010.41 1010.22 1010.00 1009.73 1009.42 1009.03 1008.57 1008.03 1007.42 1006.76 1006.09 1005.44 1004.85 1004.35 1003.95 1003.65 1003.43
1013.46 1012.94 1012.43 1012.01 1011.69 1011.50 1011.44 1011.48 1011.56 1011.65 1011.70 1011.69 1011.60 1011.47 1011.30 1011.13 1010.98 1010.88 1010.81 1010.78 1010.76 1010.74 1010.69 1010.62 1010.53 1010.41 1010.28 1010.14 1009.98 1009.79 1009.54 1009.21 1008.78 1008.25 1007.63 1006.93 1006.21 1005.49 1004.82 1004.22 1003.72 1003.31 1002.96
Thickness
5793 5794 5792 5790 5787 5786 5784 5782 5781 5780 5778 5776 5774 5772 5771 5769 5767 5765 5763 5761 5759 5757 5756 5754 5753 5752 5751 5749 5748 5747 5746 5745 5744 5743 5742 5742 5741 5740 5740 5739 5738 5737 5737
5796 5794 5791 5788 5786 5784 5782 5780 5778 5776 5775 5773 5771 5770 5768 5766 5764 5762 5760 5757 5756 5754 5753 5751 5750 5749 5748 5747 5745 5744 5743 5743 5742 5741 5740 5739 5739 5738 5737 5737 5736 5735 5735
5795 5792 5790 5787 5784 5782 5779 5777 5775 5773 5772 5770 5768 5766 5764 5762 5760 5759 5757 5754 5753 5751 5749 5748 5747 5746 5745 5744 5743 5742 5741 5740 5739 5738 5738 5737 5736 5736 5735 5734 5734 5733 5733
5792 5789 5787 5784 5782 5779 5777 5774 5772 5771 5769 5767 5765 5763 5761 5759 5757 5755 5753 5751 5750 5748 5747 5745 5744 5743 5742 5741 5740 5739 5738 5737 5736 5736 5735 5734 5733 5733 5733 5732 5731 5730 5730
5789 5786 5784 5781 5779 5777 5775 5772 5770 5768 5766 5764 5762 5759 5758 5756 5754 5752 5750 5748 5747 5745 5744 5743 5741 5740 5739 5738 5737 5736 5735 5734 5734 5733 5732 5731 5730 5730 5730 5730 5729 5728 5727
5784 5783 5780 5778 5776 5774 5772 5769 5767 5765 5763 5760 5758 5756 5755 5753 5751 5749 5747 5746 5744 5742 5741 5740 5738 5737 5736 5734 5734 5733 5732 5731 5731 5730 5729 5728 5728 5727 5727 5727 5726 5726 5725
5779 5777 5776 5773 5771 5770 5768 5766 5764 5762 5760 5758 5755 5753 5751 5750 5748 5746 5744 5743 5742 5740 5739 5737 5736 5734 5733 5732 5731 5730 5730 5729 5728 5727 5726 5726 5725 5725 5724 5724 5724 5723 5723
5774 5772 5770 5769 5767 5766 5764 5762 5760 5758 5756 5755 5753 5751 5749 5747 5745 5743 5742 5741 5739 5738 5736 5735 5733 5732 5730 5729 5728 5727 5727 5726 5725 5724 5724 5723 5722 5722 5722 5722 5721 5721 5720
5770 5768 5766 5764 5763 5762 5760 5758 5756 5754 5753 5751 5749 5747 5745 5744 5742 5741 5740 5738 5737 5735 5733 5732 5730 5729 5728 5727 5726 5725 5724 5722 5722 5721 5721 5720 5719 5719 5719 5719 5719 5718 5717
5764 5762 5761 5759 5758 5757 5756 5754 5752 5750 5749 5747 5746 5744 5741 5740 5739 5738 5736 5735 5734 5732 5730 5729 5727 5726 5726 5724 5724 5723 5721 5720 5719 5718 5717 5717 5717 5716 5716 5716 5716 5715 5715
5758 5757 5756 5755 5754 5752 5751 5749 5748 5746 5745 5744 5742 5740 5739 5736 5735 5734 5733 5732 5731 5729 5727 5726 5724 5723 5723 5722 5721 5720 5718 5717 5716 5715 5714 5714 5714 5713 5713 5712 5713 5713 5712
5751 5751 5751 5750 5749 5747 5746 5745 5743 5741 5740 5739 5738 5736 5735 5733 5731 5729 5729 5728 5727 5726 5724 5723 5721 5720 5719 5718 5717 5716 5715 5714 5712 5712 5711 5711 5711 5710 5710 5710 5710 5710 5709
5747 5746 5746 5746 5744 5743 5742 5740 5738 5736 5735 5735 5733 5731 5730 5728 5726 5725 5724 5723 5722 5721 5720 5719 5717 5716 5715 5715 5714 5712 5711 5710 5709 5708 5708 5708 5707 5707 5707 5707 5706 5706 5706
5742 5742 5741 5741 5740 5739 5737 5736 5734 5732 5731 5730 5728 5726 5725 5723 5721 5720 5719 5718 5717 5716 5715 5713 5712 5712 5711 5710 5710 5709 5708 5707 5706 5704 5704 5704 5704 5704 5703 5703 5703 5703 5703
5739 5738 5737 5737 5736 5734 5733 5731 5730 5729 5727 5725 5724 5722 5721 5718 5716 5715 5714 5712 5711 5710 5709 5708 5707 5706 5706 5705 5704 5704 5703 5703 5702 5701 5700 5700 5700 5700 5700 5700 5700 5699 5699
5736 5734 5733 5732 5731 5730 5728 5727 5725 5725 5723 5721 5719 5718 5716 5714 5712 5710 5708 5707 5706 5705 5703 5702 5702 5701 5700 5700 5699 5699 5699 5698 5697 5696 5696 5696 5696 5696 5696 5696 5696 5695 5695
5732 5731 5729 5727 5726 5724 5723 5722 5721 5719 5718 5716 5714 5713 5711 5709 5707 5705 5703 5702 5701 5699 5698 5697 5696 5695 5694 5694 5693 5693 5693 5692 5692 5692 5692 5692 5691 5691 5692 5692 5692 5692 5692
5728 5725 5723 5723 5720 5718 5717 5715 5715 5714 5713 5712 5710 5708 5706 5704 5702 5699 5698 5697 5695 5694 5692 5691 5690 5688 5687 5687 5687 5687 5687 5687 5687 5687 5687 5687 5687 5687 5687 5688 5688 5688 5688
5723 5721 5718 5716 5714 5712 5711 5709 5709 5708 5707 5706 5704 5703 5701 5699 5697 5695 5693 5692 5690 5688 5686 5685 5684 5682 5680 5680 5680 5680 5680 5680 5681 5681 5681 5682 5682 5682 5682 5683 5683 5683 5683
5718 5716 5713 5711 5709 5707 5705 5702 5702 5702 5701 5700 5698 5697 5696 5694 5692 5689 5687 5686 5684 5681 5680 5678 5677 5675 5674 5673 5674 5674 5674 5674 5675 5675 5676 5677 5677 5678 5678 5678 5678 5678 5678
5713 5710 5708 5705 5704 5702 5699 5696 5695 5694 5693 5693 5692 5691 5690 5688 5685 5683 5681 5679 5677 5675 5673 5672 5671 5669 5668 5667 5665 5665 5667 5668 5668 5669 5669 5670 5671 5672 5672 5672 5672 5673 5673
5708 5706 5703 5701 5698 5697 5694 5692 5690 5688 5687 5686 5686 5685 5683 5681 5679 5678 5675 5673 5671 5669 5667 5666 5665 5663 5662 5660 5658 5656 5656 5658 5661 5664 5663 5664 5665 5665 5666 5666 5666 5667 5667
5702 5701 5700 5696 5694 5692 5690 5687 5685 5682 5681 5680 5679 5678 5677 5675 5674 5672 5670 5668 5665 5663 5662 5661 5660 5657 5656 5655 5653 5650 5648 5649 5652 5655 5656 5657 5658 5658 5659 5660 5660 5661 5662
5699 5698 5695 5692 5690 5687 5685 5682 5679 5676 5673 5674 5673 5671 5671 5670 5668 5667 5665 5662 5660 5658 5656 5655 5655 5653 5651 5649 5647 5646 5645 5645 5643 5646 5649 5650 5651 5651 5652 5653 5654 5655 5656
5697 5694 5691 5688 5685 5683 5681 5677 5674 5671 5670 5670 5668 5667 5666 5665 5664 5662 5660 5658 5655 5654 5652 5651 5650 5649 5647 5645 5643 5641 5639 5638 5637 5637 5640 5642 5643 5645 5646 5647 5648 5649 5650
5693 5690 5687 5684 5680 5678 5676 5673 5670 5669 5667 5665 5663 5661 5661 5660 5659 5657 5655 5653 5651 5650 5648 5646 5645 5644 5642 5641 5640 5637 5635 5634 5632 5631 5632 5634 5634 5637 5639 5641 5642 5643 5644